Time,TemperatureC,DewpointC,PressurehPa,WindDirection,WindDirectionDegrees,WindSpeedKMH,WindSpeedGustKMH,Humidity,HourlyPrecipMM,Conditions,Clouds,dailyrainMM,SolarRadiationWatts/m^2,UVIndex,SoftwareType,DateUTC
2026-05-04 00:04:59,7,6,1032.1,East,94,0,0,93,0.0,,,0.0,0,0,n/a,2026-05-03T12:04:59Z
2026-05-04 00:09:55,6.9,5.8,1032.0,East,94,0,0,93,0.0,,,0.0,0,0,n/a,2026-05-03T12:09:55Z
2026-05-04 00:14:58,6.7,5.7,1032.0,East,94,0,0,93,0.0,,,0.0,0,0,n/a,2026-05-03T12:14:58Z
2026-05-04 00:19:57,6.6,5.6,1032.0,East,94,0,0,93,0.0,,,0.0,0,0,n/a,2026-05-03T12:19:57Z
2026-05-04 00:24:58,6.5,5.4,1032.0,East,94,0.6,3.7,93,0.0,,,0.0,0,0,n/a,2026-05-03T12:24:58Z
2026-05-04 00:29:55,6.4,5.3,1031.9,East,94,0.6,1.9,93,0.0,,,0.0,0,0,n/a,2026-05-03T12:29:55Z
2026-05-04 00:34:58,6.3,5.2,1031.8,East,94,0,1.9,93,0.0,,,0.0,0,0,n/a,2026-05-03T12:34:58Z
2026-05-04 00:39:58,6.1,5.1,1031.8,East,94,0.1,1.6,93,0.0,,,0.0,0,0,n/a,2026-05-03T12:39:58Z
2026-05-04 00:44:55,5.9,4.9,1031.8,East,94,1.2,3.7,93,0.0,,,0.0,0,0,n/a,2026-05-03T12:44:55Z
2026-05-04 00:49:59,5.8,4.7,1031.9,East,94,0.7,3.7,93,0.0,,,0.0,0,0,n/a,2026-05-03T12:49:59Z
2026-05-04 00:54:59,5.6,4.6,1031.8,East,94,0.2,1.9,93,0.0,,,0.0,0,0,n/a,2026-05-03T12:54:59Z
2026-05-04 00:59:58,5.5,4.4,1031.7,East,94,1,1.9,93,0.0,,,0.0,0,0,n/a,2026-05-03T12:59:58Z
2026-05-04 01:04:54,5.3,4.3,1031.7,East,94,0,1.6,93,0.0,,,0.0,0,0,n/a,2026-05-03T13:04:54Z
2026-05-04 01:09:54,5.2,4.2,1031.7,East,94,0.1,1.9,93,0.0,,,0.0,0,0,n/a,2026-05-03T13:09:54Z
2026-05-04 01:14:58,5.2,4.1,1031.7,East,94,0,1.6,93,0.0,,,0.0,0,0,n/a,2026-05-03T13:14:58Z
2026-05-04 01:19:56,5.1,4.1,1031.6,East,94,1,1.9,93,0.0,,,0.0,0,0,n/a,2026-05-03T13:19:56Z
2026-05-04 01:24:54,5.1,4,1031.6,East,94,1,1.9,93,0.0,,,0.0,0,0,n/a,2026-05-03T13:24:54Z
2026-05-04 01:29:58,5,3.9,1031.7,East,94,0.8,1.9,93,0.0,,,0.0,0,0,n/a,2026-05-03T13:29:58Z
2026-05-04 01:34:56,4.9,3.9,1031.7,East,94,0.3,1.9,93,0.0,,,0.0,0,0,n/a,2026-05-03T13:34:56Z
2026-05-04 01:39:56,4.8,3.8,1031.7,East,94,0,1.9,93,0.0,,,0.0,0,0,n/a,2026-05-03T13:39:56Z
2026-05-04 01:44:55,4.8,3.7,1031.7,East,94,0,0,93,0.0,,,0.0,0,0,n/a,2026-05-03T13:44:55Z
2026-05-04 01:49:54,4.7,3.6,1031.7,East,94,0,1.9,93,0.0,,,0.0,0,0,n/a,2026-05-03T13:49:54Z
2026-05-04 01:54:59,4.7,3.6,1031.7,East,94,0.2,1.9,93,0.0,,,0.0,0,0,n/a,2026-05-03T13:54:59Z
2026-05-04 01:59:56,4.7,3.6,1031.7,East,94,0.1,1.9,93,0.0,,,0.0,0,0,n/a,2026-05-03T13:59:56Z
2026-05-04 02:04:58,4.7,3.6,1031.7,East,94,0.5,3.7,93,0.0,,,0.0,0,0,n/a,2026-05-03T14:04:58Z
2026-05-04 02:09:59,4.7,3.6,1031.6,East,94,0.2,1.9,93,0.0,,,0.0,0,0,n/a,2026-05-03T14:09:59Z
2026-05-04 02:14:57,4.7,3.8,1031.7,East,94,0.5,1.9,93.9,0.0,,,0.0,0,0,n/a,2026-05-03T14:14:57Z
2026-05-04 02:19:55,4.7,3.8,1031.8,East,94,0,0,94,0.0,,,0.0,0,0,n/a,2026-05-03T14:19:55Z
2026-05-04 02:24:58,4.6,3.7,1031.7,East,94,0.5,1.9,94,0.0,,,0.0,0,0,n/a,2026-05-03T14:24:58Z
2026-05-04 02:29:59,4.6,3.7,1031.7,East,94,0.1,1.9,94,0.0,,,0.0,0,0,n/a,2026-05-03T14:29:59Z
2026-05-04 02:34:54,4.6,3.7,1031.7,East,94,0.7,1.9,94,0.0,,,0.0,0,0,n/a,2026-05-03T14:34:54Z
2026-05-04 02:39:57,4.6,3.8,1031.7,East,94,0.1,1.9,94,0.0,,,0.0,0,0,n/a,2026-05-03T14:39:57Z
2026-05-04 02:44:55,4.7,3.8,1031.7,East,94,0.4,1.9,94,0.0,,,0.0,0,0,n/a,2026-05-03T14:44:55Z
2026-05-04 02:49:55,4.7,3.8,1031.7,East,94,0.3,1.9,94,0.0,,,0.0,0,0,n/a,2026-05-03T14:49:55Z
2026-05-04 02:54:55,4.7,3.8,1031.7,East,94,0.1,1.9,94,0.0,,,0.0,0,0,n/a,2026-05-03T14:54:55Z
2026-05-04 02:59:57,4.8,3.9,1031.6,East,94,0.1,1.9,94,0.0,,,0.0,0,0,n/a,2026-05-03T14:59:57Z
2026-05-04 03:04:54,4.8,3.9,1031.5,East,94,0,0,94,0.0,,,0.0,0,0,n/a,2026-05-03T15:04:54Z
2026-05-04 03:09:56,4.8,3.9,1031.4,East,94,0.3,1.9,94,0.0,,,0.0,0,0,n/a,2026-05-03T15:09:56Z
2026-05-04 03:14:57,4.9,4,1031.4,East,94,0.5,1.9,94,0.0,,,0.0,0,0,n/a,2026-05-03T15:14:57Z
2026-05-04 03:19:54,5,4.1,1031.4,East,94,1,3.7,94,0.0,,,0.0,0,0,n/a,2026-05-03T15:19:54Z
2026-05-04 03:24:57,5.1,4.2,1031.4,East,94,0.9,3.7,94,0.0,,,0.0,0,0,n/a,2026-05-03T15:24:57Z
2026-05-04 03:29:59,5.1,4.2,1031.3,East,94,1,3.7,94,0.0,,,0.0,0,0,n/a,2026-05-03T15:29:59Z
2026-05-04 03:34:56,5.2,4.3,1031.3,East,94,0.3,1.9,94,0.0,,,0.0,0,0,n/a,2026-05-03T15:34:56Z
2026-05-04 03:39:55,5.2,4.4,1031.3,East,94,0.7,3.7,94,0.0,,,0.0,0,0,n/a,2026-05-03T15:39:55Z
2026-05-04 03:44:54,5.3,4.4,1031.3,East,94,1.5,5.6,94,0.0,,,0.0,0,0,n/a,2026-05-03T15:44:54Z
2026-05-04 03:49:56,5.5,4.6,1031.3,East,94,1.2,6.4,94,0.0,,,0.0,0,0,n/a,2026-05-03T15:49:56Z
2026-05-04 03:54:58,5.5,4.6,1031.3,East,94,0.3,1.9,94,0.0,,,0.0,0,0,n/a,2026-05-03T15:54:58Z
2026-05-04 03:59:59,5.6,4.7,1031.3,East,94,0.9,3.7,94,0.0,,,0.0,0,0,n/a,2026-05-03T15:59:59Z
2026-05-04 04:04:59,5.6,4.8,1031.3,East,94,0.4,1.9,94,0.0,,,0.0,0,0,n/a,2026-05-03T16:04:59Z
2026-05-04 04:09:54,5.7,4.8,1031.3,East,94,1.1,5.6,94,0.0,,,0.0,0,0,n/a,2026-05-03T16:09:54Z
2026-05-04 04:14:57,5.8,4.9,1031.3,East,94,0.3,5.6,94,0.0,,,0.0,0,0,n/a,2026-05-03T16:14:57Z
2026-05-04 04:19:55,5.8,4.9,1031.3,East,94,1,3.7,94,0.0,,,0.0,0,0,n/a,2026-05-03T16:19:55Z
2026-05-04 04:24:57,5.9,5,1031.3,East,94,1.8,5.6,94,0.0,,,0.0,0,0,n/a,2026-05-03T16:24:57Z
2026-05-04 04:29:53,5.9,5,1031.3,East,94,1,3.7,94,0.0,,,0.0,0,0,n/a,2026-05-03T16:29:53Z
2026-05-04 04:34:56,5.9,5,1031.3,East,94,1.5,5.6,94,0.0,,,0.0,0,0,n/a,2026-05-03T16:34:56Z
2026-05-04 04:39:54,5.9,5.1,1031.3,East,94,0.4,3.7,94,0.0,,,0.0,0,0,n/a,2026-05-03T16:39:54Z
2026-05-04 04:44:58,6,5.1,1031.3,East,94,0.5,1.9,94,0.0,,,0.0,0,0,n/a,2026-05-03T16:44:58Z
2026-05-04 04:49:59,6,5.1,1031.3,East,94,0.4,3.7,94,0.0,,,0.0,0,0,n/a,2026-05-03T16:49:59Z
2026-05-04 04:54:55,6,5.2,1031.4,East,94,0.4,3.7,94,0.0,,,0.0,0,0,n/a,2026-05-03T16:54:55Z
2026-05-04 04:59:58,6.1,5.2,1031.4,East,94,0.7,3.7,94,0.0,,,0.0,0,0,n/a,2026-05-03T16:59:58Z
2026-05-04 05:04:55,6.1,5.2,1031.4,East,94,0.3,3.7,94,0.0,,,0.0,0,0,n/a,2026-05-03T17:04:55Z
2026-05-04 05:09:59,6.2,5.3,1031.4,East,94,0.4,1.9,94,0.0,,,0.0,0,0,n/a,2026-05-03T17:09:59Z
2026-05-04 05:14:57,6.2,5.4,1031.4,East,94,0.1,1.9,94,0.0,,,0.0,0,0,n/a,2026-05-03T17:14:57Z
2026-05-04 05:19:54,6.3,5.4,1031.4,East,94,0.3,1.9,94,0.0,,,0.0,0,0,n/a,2026-05-03T17:19:54Z
2026-05-04 05:24:56,6.4,5.5,1031.4,East,94,0.6,3.7,94,0.0,,,0.0,0,0,n/a,2026-05-03T17:24:56Z
2026-05-04 05:29:58,6.4,5.6,1031.4,East,94,0.6,3.7,94,0.0,,,0.0,0,0,n/a,2026-05-03T17:29:58Z
2026-05-04 05:34:56,6.5,5.7,1031.4,East,94,1.4,3.7,94,0.0,,,0.0,0,0,n/a,2026-05-03T17:34:56Z
2026-05-04 05:39:59,6.7,5.8,1031.4,East,94,1.5,3.7,94,0.0,,,0.0,0,0,n/a,2026-05-03T17:39:59Z
2026-05-04 05:44:56,6.8,5.9,1031.4,East,99,1.4,3.7,94,0.0,,,0.0,0,0,n/a,2026-05-03T17:44:56Z
2026-05-04 05:49:56,6.8,5.9,1031.4,ESE,111,0.5,3.7,94,0.0,,,0.0,0,0,n/a,2026-05-03T17:49:56Z
2026-05-04 05:54:54,6.9,6,1031.4,ESE,111,0.1,3.7,94,0.0,,,0.0,0,0,n/a,2026-05-03T17:54:54Z
2026-05-04 05:59:58,6.9,6,1031.4,ESE,111,0.9,3.7,94,0.0,,,0.0,0,0,n/a,2026-05-03T17:59:58Z
2026-05-04 06:04:54,6.9,6.1,1031.4,ESE,111,0.1,1.9,94,0.0,,,0.0,0,0,n/a,2026-05-03T18:04:54Z
2026-05-04 06:09:57,7,6.1,1031.4,ESE,111,1.1,3.7,94,0.0,,,0.0,0,0,n/a,2026-05-03T18:09:57Z
2026-05-04 06:14:54,7.1,6.2,1031.5,ESE,122,1.1,3.7,94,0.0,,,0.0,0,0,n/a,2026-05-03T18:14:54Z
2026-05-04 06:19:56,7.2,6.3,1031.5,WSW,237,0.7,3.7,94,0.0,,,0.0,0,0,n/a,2026-05-03T18:19:56Z
2026-05-04 06:24:59,7.2,6.4,1031.6,WSW,252,1,3.7,94,0.0,,,0.0,0,0,n/a,2026-05-03T18:24:59Z
2026-05-04 06:29:55,7.3,6.4,1031.6,West,261,1.2,3.7,94,0.0,,,0.0,0,0,n/a,2026-05-03T18:29:55Z
2026-05-04 06:34:58,7.3,6.4,1031.6,West,263,1.3,3.7,94,0.0,,,0.0,0,0,n/a,2026-05-03T18:34:58Z
2026-05-04 06:39:56,7.3,6.4,1031.6,West,263,0.8,1.9,94,0.0,,,0.0,0,0,n/a,2026-05-03T18:39:56Z
2026-05-04 06:44:58,7.3,6.4,1031.6,West,263,0.7,3.7,94,0.0,,,0.0,0,0,n/a,2026-05-03T18:44:58Z
2026-05-04 06:49:55,7.2,6.3,1031.6,West,263,0.4,1.9,94,0.0,,,0.0,0,0,n/a,2026-05-03T18:49:55Z
2026-05-04 06:54:57,7.2,6.3,1031.6,West,263,0.7,3.2,94,0.0,,,0.0,0,0,n/a,2026-05-03T18:54:57Z
2026-05-04 06:59:54,7.2,6.3,1031.7,West,263,0.6,3.7,94,0.0,,,0.0,0,0,n/a,2026-05-03T18:59:54Z
2026-05-04 07:04:58,7.1,6.2,1031.7,West,263,0.8,3.7,94,0.0,,,0.0,0,0,n/a,2026-05-03T19:04:58Z
2026-05-04 07:09:58,7.1,6.2,1031.7,West,263,0.6,1.9,94,0.0,,,0.0,0,0,n/a,2026-05-03T19:09:58Z
2026-05-04 07:14:55,7.1,6.2,1031.7,West,263,0.6,3.7,94,0.0,,,0.0,0,0,n/a,2026-05-03T19:14:55Z
2026-05-04 07:19:55,7,6.1,1031.7,West,263,1.1,3.7,94,0.0,,,0.0,0,0,n/a,2026-05-03T19:19:55Z
2026-05-04 07:24:56,7,6.1,1031.7,West,263,0.8,3.7,94,0.0,,,0.0,0,0,n/a,2026-05-03T19:24:56Z
2026-05-04 07:29:58,7,6.1,1031.7,West,263,1.2,3.7,94,0.0,,,0.0,0,0,n/a,2026-05-03T19:29:58Z
2026-05-04 07:34:56,7,6.1,1031.7,West,263,1.3,3.7,94,0.0,,,0.0,5,0,n/a,2026-05-03T19:34:56Z
2026-05-04 07:39:54,7,6.1,1031.8,West,263,1.5,3.7,94,0.0,,,0.0,7,0,n/a,2026-05-03T19:39:54Z
2026-05-04 07:44:57,7.1,6.2,1031.9,West,263,1,3.7,94,0.0,,,0.0,11,0,n/a,2026-05-03T19:44:57Z
2026-05-04 07:49:58,7.1,6.2,1032.0,West,263,1.1,3.7,94,0.0,,,0.0,12,0,n/a,2026-05-03T19:49:58Z
2026-05-04 07:54:54,7.1,6.2,1032.0,West,263,0.5,3.7,94,0.0,,,0.0,16,0,n/a,2026-05-03T19:54:54Z
2026-05-04 07:59:58,7.2,6.3,1032.0,West,263,0.7,3.7,94,0.0,,,0.0,18,0,n/a,2026-05-03T19:59:58Z
2026-05-04 08:04:54,7.2,6.3,1032.1,West,263,1.1,3.7,94,0.0,,,0.0,21,0,n/a,2026-05-03T20:04:54Z
2026-05-04 08:09:59,7.3,6.4,1032.2,West,263,0.7,3.7,94,0.0,,,0.0,23,0,n/a,2026-05-03T20:09:59Z
2026-05-04 08:14:56,7.3,6.4,1032.2,West,263,1.4,4.8,94,0.0,,,0.0,28,0,n/a,2026-05-03T20:14:56Z
2026-05-04 08:19:58,7.3,6.5,1032.2,West,263,2.2,5.6,94,0.0,,,0.0,35,0,n/a,2026-05-03T20:19:58Z
2026-05-04 08:24:55,7.4,6.5,1032.3,West,264,2.3,5.6,94,0.0,,,0.0,37,0,n/a,2026-05-03T20:24:55Z
2026-05-04 08:29:57,7.5,6.6,1032.4,West,265,1.3,3.7,94,0.0,,,0.0,37,0,n/a,2026-05-03T20:29:57Z
2026-05-04 08:34:54,7.5,6.7,1032.4,West,265,0.7,3.7,94,0.0,,,0.0,42,0,n/a,2026-05-03T20:34:54Z
2026-05-04 08:39:58,7.6,6.7,1032.5,West,265,1.1,3.7,94,0.0,,,0.0,44,0,n/a,2026-05-03T20:39:58Z
2026-05-04 08:44:54,7.7,6.8,1032.5,West,265,1.7,3.7,94,0.0,,,0.0,53,0,n/a,2026-05-03T20:44:54Z
2026-05-04 08:49:55,7.8,6.9,1032.5,West,263,1.7,5.6,94,0.0,,,0.0,53,0,n/a,2026-05-03T20:49:55Z
2026-05-04 08:54:57,7.8,6.9,1032.5,West,259,1.3,3.7,94,0.0,,,0.0,56,0,n/a,2026-05-03T20:54:57Z
2026-05-04 08:59:54,7.9,7,1032.4,West,259,0.5,3.7,94,0.0,,,0.0,63,0,n/a,2026-05-03T20:59:54Z
2026-05-04 09:04:56,7.9,7.1,1032.4,West,278,1.2,3.7,94,0.0,,,0.0,67,0,n/a,2026-05-03T21:04:56Z
2026-05-04 09:09:58,8,7.1,1032.4,West,281,1.1,3.7,94,0.0,,,0.0,69,0,n/a,2026-05-03T21:09:58Z
2026-05-04 09:14:55,8.1,7.2,1032.4,West,274,1.4,5.6,94,0.0,,,0.0,72,0,n/a,2026-05-03T21:14:55Z
2026-05-04 09:19:57,8.1,7.3,1032.4,West,277,1.4,3.7,94,0.0,,,0.0,77,0,n/a,2026-05-03T21:19:57Z
2026-05-04 09:24:59,8.2,7.3,1032.5,West,264,2.1,3.7,94,0.0,,,0.0,79,0,n/a,2026-05-03T21:24:59Z
2026-05-04 09:29:56,8.3,7.4,1032.4,West,261,2.1,5.6,94,0.0,,,0.0,81,0,n/a,2026-05-03T21:29:56Z
2026-05-04 09:34:58,8.4,7.5,1032.4,WSW,257,2.3,5.6,94,0.0,,,0.0,83,0,n/a,2026-05-03T21:34:58Z
2026-05-04 09:39:58,8.4,7.5,1032.5,West,265,2.6,9.7,94,0.0,,,0.0,86,0,n/a,2026-05-03T21:39:58Z
2026-05-04 09:44:54,8.4,7.6,1032.5,West,267,2.6,9.3,94,0.0,,,0.0,95,0,n/a,2026-05-03T21:44:54Z
2026-05-04 09:49:57,8.5,7.6,1032.5,West,265,2.6,5.6,94,0.0,,,0.0,97,0,n/a,2026-05-03T21:49:57Z
2026-05-04 09:54:59,8.5,7.7,1032.5,WSW,257,2.1,3.7,94,0.0,,,0.0,97,0.5,n/a,2026-05-03T21:54:59Z
2026-05-04 09:59:55,8.7,7.8,1032.5,WSW,258,1.9,5.6,94,0.0,,,0.0,105,0.5,n/a,2026-05-03T21:59:55Z
2026-05-04 10:04:58,8.7,7.8,1032.5,West,266,2.7,5.6,94,0.0,,,0.0,102,0.5,n/a,2026-05-03T22:04:58Z
2026-05-04 10:09:59,8.7,7.9,1032.5,West,267,1.6,4.8,94,0.0,,,0.0,104,0.5,n/a,2026-05-03T22:09:59Z
2026-05-04 10:14:56,8.8,7.9,1032.6,West,268,2.2,5.6,94,0.0,,,0.0,98,0.5,n/a,2026-05-03T22:14:56Z
2026-05-04 10:19:58,8.8,7.9,1032.5,West,260,2.5,5.6,94,0.0,,,0.0,93,0.5,n/a,2026-05-03T22:19:58Z
2026-05-04 10:24:55,8.8,7.9,1032.5,West,280,2,5.6,94,0.0,,,0.0,97,0.5,n/a,2026-05-03T22:24:55Z
2026-05-04 10:29:57,8.8,7.9,1032.5,West,277,1.7,5.6,94,0.0,,,0.0,98,0.5,n/a,2026-05-03T22:29:57Z
2026-05-04 10:34:54,8.8,8,1032.5,NW,325,0.7,3.7,94,0.0,,,0.0,116,0.6,n/a,2026-05-03T22:34:54Z
2026-05-04 10:39:56,9,8.1,1032.5,ENE,62,1.3,4.8,94,0.0,,,0.0,120,0.6,n/a,2026-05-03T22:39:56Z
2026-05-04 10:44:59,9,8.1,1032.6,SE,130,0.8,5.6,94,0.0,,,0.0,120,0.6,n/a,2026-05-03T22:44:59Z
2026-05-04 10:49:57,9,8.1,1032.6,SE,142,1.7,3.7,94,0.0,,,0.0,100,0.6,n/a,2026-05-03T22:49:57Z
2026-05-04 10:54:54,9,8.1,1032.7,West,269,2.4,6.4,93.8,0.0,,,0.0,105,0.6,n/a,2026-05-03T22:54:54Z
2026-05-04 10:59:57,8.9,7.9,1032.7,WNW,295,1.8,5.6,93,0.0,,,0.0,105,0.6,n/a,2026-05-03T22:59:57Z
2026-05-04 11:04:58,8.9,7.9,1032.6,WNW,298,1.8,5.6,93,0.0,,,0.0,95,0.5,n/a,2026-05-03T23:04:58Z
2026-05-04 11:09:58,9,7.9,1032.6,WNW,283,0.9,4.8,93,0.0,,,0.0,95,0.5,n/a,2026-05-03T23:09:58Z
2026-05-04 11:14:56,9,7.9,1032.6,West,274,2.8,5.6,93,0.0,,,0.0,104,0.6,n/a,2026-05-03T23:14:56Z
2026-05-04 11:19:59,9,8.1,1032.6,West,265,1,3.7,93.6,0.0,,,0.0,114,0.7,n/a,2026-05-03T23:19:59Z
2026-05-04 11:24:57,9,8,1032.6,West,270,3.8,9.7,93.4,0.0,,,0.0,142,0.9,n/a,2026-05-03T23:24:57Z
2026-05-04 11:29:59,8.9,7.9,1032.6,WNW,295,0.9,5.6,93,0.0,,,0.0,160,0.9,n/a,2026-05-03T23:29:59Z
2026-05-04 11:34:56,9,8,1032.5,East,86,1.5,3.7,93,0.0,,,0.0,167,1,n/a,2026-05-03T23:34:56Z
2026-05-04 11:39:54,9.1,8,1032.5,NNW,341,1.2,4.8,93,0.0,,,0.0,181,1.1,n/a,2026-05-03T23:39:54Z
2026-05-04 11:44:57,9,8,1032.5,West,272,2.5,6.4,93,0.0,,,0.0,181,1.1,n/a,2026-05-03T23:44:57Z
2026-05-04 11:49:59,8.9,7.9,1032.5,West,274,4.4,11.3,93,0.0,,,0.0,155,0.9,n/a,2026-05-03T23:49:59Z
2026-05-04 11:54:57,8.9,7.9,1032.5,West,270,2.8,6.4,93,0.0,,,0.0,155,0.9,n/a,2026-05-03T23:54:57Z
2026-05-04 11:59:57,9.1,8,1032.5,SE,132,1.7,5.6,93,0.0,,,0.0,158,1,n/a,2026-05-03T23:59:57Z
2026-05-04 12:04:55,9.2,8.1,1032.5,SE,138,1,5.6,93,0.0,,,0.0,153,1,n/a,2026-05-04T00:04:55Z
2026-05-04 12:09:56,9.2,8.2,1032.4,SE,140,0.8,3.7,93,0.0,,,0.0,137,0.9,n/a,2026-05-04T00:09:56Z
2026-05-04 12:14:54,9.3,8.2,1032.4,SW,223,1.3,5.6,93,0.0,,,0.0,132,0.8,n/a,2026-05-04T00:14:54Z
2026-05-04 12:19:57,9.2,8.1,1032.4,WNW,284,2.6,5.6,92.8,0.0,,,0.0,139,0.9,n/a,2026-05-04T00:19:57Z
2026-05-04 12:24:54,9,7.8,1032.2,West,262,1.6,5.6,92,0.0,,,0.0,149,0.9,n/a,2026-05-04T00:24:54Z
2026-05-04 12:29:56,9,7.8,1032.1,West,275,2.6,6.4,92,0.0,,,0.0,146,0.9,n/a,2026-05-04T00:29:56Z
2026-05-04 12:34:58,8.9,7.8,1032.0,West,267,1.4,3.7,92.2,0.0,,,0.0,137,0.8,n/a,2026-05-04T00:34:58Z
2026-05-04 12:39:56,9,7.8,1032.0,West,269,3.2,6.4,92,0.0,,,0.0,134,0.8,n/a,2026-05-04T00:39:56Z
2026-05-04 12:44:57,8.9,7.7,1031.8,West,274,4.4,11.3,92,0.0,,,0.0,146,0.9,n/a,2026-05-04T00:44:57Z
2026-05-04 12:49:54,9,7.8,1031.7,SW,215,1.7,5.6,92,0.0,,,0.0,151,0.9,n/a,2026-05-04T00:49:54Z
2026-05-04 12:54:57,9.1,7.8,1031.7,WNW,282,2.3,6.4,92,0.0,,,0.0,149,0.9,n/a,2026-05-04T00:54:57Z
2026-05-04 12:59:55,9.1,7.9,1031.6,West,260,1.8,9.7,92,0.0,,,0.0,137,0.8,n/a,2026-05-04T00:59:55Z
2026-05-04 13:04:59,9.2,7.9,1031.4,West,270,3.2,6.4,92,0.0,,,0.0,132,0.8,n/a,2026-05-04T01:04:59Z
2026-05-04 13:09:59,9.2,8.1,1031.4,West,273,2.3,5.6,92.9,0.0,,,0.0,128,0.8,n/a,2026-05-04T01:09:59Z
2026-05-04 13:14:58,9.3,8.2,1031.3,WSW,256,1,3.7,93,0.0,,,0.0,130,0.7,n/a,2026-05-04T01:14:58Z
2026-05-04 13:19:54,9.4,8.3,1031.2,West,268,2.8,6.4,92.7,0.0,,,0.0,139,0.8,n/a,2026-05-04T01:19:54Z
2026-05-04 13:24:57,9.4,8.2,1031.2,West,265,1.4,4.8,92.1,0.0,,,0.0,139,0.8,n/a,2026-05-04T01:24:57Z
2026-05-04 13:29:59,9.6,8.5,1031.2,ESE,105,1.4,5.6,93,0.0,,,0.0,118,0.7,n/a,2026-05-04T01:29:59Z
2026-05-04 13:34:55,9.7,8.6,1031.1,ESE,112,2.1,5.6,93,0.0,,,0.0,113,0.7,n/a,2026-05-04T01:34:55Z
2026-05-04 13:39:54,9.6,8.5,1031.0,SE,130,3.7,6.4,92.5,0.0,,,0.0,111,0.7,n/a,2026-05-04T01:39:54Z
2026-05-04 13:44:56,9.6,8.4,1030.9,SE,128,2.6,5.6,92,0.0,,,0.0,118,0.6,n/a,2026-05-04T01:44:56Z
2026-05-04 13:49:54,9.6,8.4,1030.9,SE,131,2.6,5.6,92,0.0,,,0.0,134,0.7,n/a,2026-05-04T01:49:54Z
2026-05-04 13:54:58,9.7,8.5,1030.8,SE,131,1.3,3.7,92,0.0,,,0.0,139,0.7,n/a,2026-05-04T01:54:58Z
2026-05-04 13:59:55,9.8,8.6,1030.8,SE,131,1.1,3.7,92.1,0.0,,,0.0,127,0.7,n/a,2026-05-04T01:59:55Z
2026-05-04 14:04:57,9.8,8.6,1030.8,SW,218,1.3,3.7,92.2,0.0,,,0.0,118,0.7,n/a,2026-05-04T02:04:57Z
2026-05-04 14:09:57,9.9,8.6,1030.8,West,265,0.6,3.7,92,0.0,,,0.0,104,0.6,n/a,2026-05-04T02:09:57Z
2026-05-04 14:14:56,10,8.8,1030.8,West,265,0.6,3.7,92,0.0,,,0.0,97,0.6,n/a,2026-05-04T02:14:56Z
2026-05-04 14:19:59,10,8.8,1030.8,West,265,0.6,1.9,92,0.0,,,0.0,113,0.6,n/a,2026-05-04T02:19:59Z
2026-05-04 14:24:57,9.9,8.7,1030.7,West,265,1.2,3.7,92,0.0,,,0.0,121,0.6,n/a,2026-05-04T02:24:57Z
2026-05-04 14:29:54,9.9,8.6,1030.7,SSE,164,1.8,5.6,92,0.0,,,0.0,123,0.6,n/a,2026-05-04T02:29:54Z
2026-05-04 14:34:56,9.9,8.7,1030.6,SW,228,0.6,3.7,92,0.0,,,0.0,113,0.5,n/a,2026-05-04T02:34:56Z
2026-05-04 14:39:59,9.9,8.7,1030.6,WSW,245,1.8,3.7,92,0.0,,,0.0,111,0.5,n/a,2026-05-04T02:39:59Z
2026-05-04 14:44:57,9.9,8.7,1030.6,West,271,2.9,6.4,92,0.0,,,0.0,109,0.5,n/a,2026-05-04T02:44:57Z
2026-05-04 14:49:54,10,8.8,1030.6,West,273,1,5.6,92,0.0,,,0.0,109,0.5,n/a,2026-05-04T02:49:54Z
2026-05-04 14:54:57,10,8.6,1030.5,West,273,1.1,3.7,91,0.0,,,0.0,116,0.5,n/a,2026-05-04T02:54:57Z
2026-05-04 14:59:57,10.1,8.8,1030.5,SSE,155,2.2,5.6,91.8,0.0,,,0.0,116,0.5,n/a,2026-05-04T02:59:57Z
2026-05-04 15:04:58,10.2,8.9,1030.5,SE,140,1.5,5.6,91.6,0.0,,,0.0,100,0.5,n/a,2026-05-04T03:04:58Z
2026-05-04 15:09:58,10.2,8.8,1030.5,SE,138,2.5,5.6,91,0.0,,,0.0,93,0,n/a,2026-05-04T03:09:58Z
2026-05-04 15:14:57,10.3,8.9,1030.5,SE,138,1.7,5.6,91,0.0,,,0.0,104,0.5,n/a,2026-05-04T03:14:57Z
2026-05-04 15:19:54,10.2,8.8,1030.4,SE,138,0.7,5.6,91,0.0,,,0.0,127,0.5,n/a,2026-05-04T03:19:54Z
2026-05-04 15:24:56,10.3,8.9,1030.4,SE,138,0.3,3.2,91,0.0,,,0.0,125,0.5,n/a,2026-05-04T03:24:56Z
2026-05-04 15:29:53,10.4,9,1030.4,SSW,198,1.3,3.7,91,0.0,,,0.0,142,0.5,n/a,2026-05-04T03:29:53Z
2026-05-04 15:34:58,10.4,9.1,1030.4,SE,139,1.8,4.8,91,0.0,,,0.0,158,0.5,n/a,2026-05-04T03:34:58Z
2026-05-04 15:39:56,10.5,9.1,1030.3,SE,134,0.8,5.6,91,0.0,,,0.0,153,0.5,n/a,2026-05-04T03:39:56Z
2026-05-04 15:44:59,10.5,9,1030.3,SE,136,2.5,6.4,90.4,0.0,,,0.0,153,0.5,n/a,2026-05-04T03:44:59Z
2026-05-04 15:49:57,10.5,9,1030.3,SE,138,2.1,5.6,90,0.0,,,0.0,148,0,n/a,2026-05-04T03:49:57Z
2026-05-04 15:54:55,10.6,9,1030.3,SE,131,2.7,5.6,90,0.0,,,0.0,132,0,n/a,2026-05-04T03:54:55Z
2026-05-04 15:59:58,10.7,9.1,1030.3,ESE,118,2.8,5.6,90,0.0,,,0.0,93,0,n/a,2026-05-04T03:59:58Z
2026-05-04 16:04:56,10.6,9,1030.3,ESE,117,2.4,5.6,90,0.0,,,0.0,74,0,n/a,2026-05-04T04:04:56Z
2026-05-04 16:09:54,10.5,8.9,1030.2,SE,125,2.3,5.6,90,0.0,,,0.0,67,0,n/a,2026-05-04T04:09:54Z
2026-05-04 16:14:57,10.4,8.9,1030.3,SE,125,2.3,5.6,90,0.0,,,0.0,63,0,n/a,2026-05-04T04:14:57Z
2026-05-04 16:19:55,10.4,8.8,1030.3,ESE,116,2.4,5.6,90,0.0,,,0.0,58,0,n/a,2026-05-04T04:19:55Z
2026-05-04 16:24:54,10.3,8.7,1030.4,ESE,122,1.6,5.6,90,0.0,,,0.0,53,0,n/a,2026-05-04T04:24:54Z
2026-05-04 16:29:57,10.2,8.7,1030.4,ESE,117,1.2,3.7,90,0.0,,,0.0,53,0,n/a,2026-05-04T04:29:57Z
2026-05-04 16:34:54,10.2,8.6,1030.4,ESE,104,1.3,3.7,90,0.0,,,0.0,42,0,n/a,2026-05-04T04:34:54Z
2026-05-04 16:39:55,10.2,8.6,1030.3,East,101,0.6,1.9,90,0.0,,,0.0,35,0,n/a,2026-05-04T04:39:55Z
2026-05-04 16:44:59,10.2,8.6,1030.3,East,101,1.2,3.7,90,0.0,,,0.0,37,0,n/a,2026-05-04T04:44:59Z
2026-05-04 16:49:57,10.2,8.6,1030.3,East,98,1.4,3.7,90,0.0,,,0.0,42,0,n/a,2026-05-04T04:49:57Z
2026-05-04 16:54:55,10.2,8.7,1030.3,East,98,0.7,1.9,90.4,0.0,,,0.0,42,0,n/a,2026-05-04T04:54:55Z
2026-05-04 16:59:59,10.3,8.9,1030.3,East,98,2.5,5.6,91,0.0,,,0.0,42,0,n/a,2026-05-04T04:59:59Z
2026-05-04 17:04:55,10.3,8.9,1030.3,ESE,105,3.2,5.6,91,0.0,,,0.0,28,0,n/a,2026-05-04T05:04:55Z
2026-05-04 17:09:56,10.3,8.9,1030.3,ESE,114,1.2,5.6,91,0.0,,,0.0,23,0,n/a,2026-05-04T05:09:56Z
2026-05-04 17:14:59,10.2,8.8,1030.3,ESE,109,1.4,3.7,90.6,0.0,,,0.0,19,0,n/a,2026-05-04T05:14:59Z
2026-05-04 17:19:54,10.2,8.7,1030.2,ESE,109,0.7,3.2,90.2,0.0,,,0.0,14,0,n/a,2026-05-04T05:19:54Z
2026-05-04 17:24:58,10.2,8.8,1030.3,ESE,109,1.4,3.7,91,0.0,,,0.0,11,0,n/a,2026-05-04T05:24:58Z
2026-05-04 17:29:59,10.2,8.8,1030.3,ESE,109,1.6,3.7,91,0.0,,,0.0,7,0,n/a,2026-05-04T05:29:59Z
2026-05-04 17:34:56,10.2,8.8,1030.3,ESE,109,1.5,4.8,91,0.0,,,0.0,5,0,n/a,2026-05-04T05:34:56Z